Wind_Speed
8 8 9 9 10 10 10 10 10 9 8 7 7 8 8 9 9 10 11 12 13 14 15 16 16 17 17 18 19 19 20 21 22 23 25 26 27 27 28 29 30 31 31 32 32 33 34 36 37 37 37 39 41 42 43 42 42 41 38 38 38 36 37 40 48 56 57 53 51 51 50 48 47 45 41 40 41 42 42 41 39 37 36 36 35
7 7 8 8 8 8 8 7 6 6 5 5 5 6 7 9 10 11 12 12 13 14 15 16 16 17 17 17 18 18 19 20 21 22 24 25 26 27 29 30 31 32 32 33 33 33 34 36 37 37 36 38 40 40 41 41 39 38 37 38 40 36 34 38 43 50 54 53 51 51 49 48 47 46 45 45 44 42 41 39 38 37 36 35 34
5 5 6 6 5 5 4 4 3 3 4 5 6 8 9 11 12 13 14 14 15 15 16 16 17 17 18 18 19 19 20 20 21 22 23 25 26 27 28 30 32 33 34 35 36 35 36 37 38 38 37 38 39 39 39 39 37 37 37 38 39 38 36 37 40 45 49 50 49 49 49 48 48 48 47 46 44 41 40 38 36 35 35 35 33
3 3 4 4 4 4 3 3 4 4 5 6 8 10 11 13 14 15 15 16 17 17 18 18 18 19 19 19 20 20 20 21 21 22 23 24 26 27 28 29 31 33 34 35 36 37 38 39 39 38 37 38 39 39 38 38 37 37 38 38 40 40 38 38 40 43 46 48 48 48 48 49 49 48 47 45 43 41 39 37 36 35 34 34 33
1 2 3 3 4 4 5 5 5 6 7 9 11 12 14 15 16 17 17 17 18 18 19 20 20 21 21 21 22 21 22 22 22 23 23 23 25 26 27 29 30 32 33 34 36 37 38 39 39 38 37 38 40 40 39 39 38 38 38 38 39 39 38 39 40 41 44 47 48 48 49 50 49 48 47 44 43 41 39 37 36 35 35 33 32
0 1 2 3 4 5 6 7 7 8 10 11 13 14 15 16 17 17 18 18 19 19 20 21 22 22 23 23 23 24 24 25 25 25 25 25 26 27 27 29 30 31 33 34 35 36 38 39 39 38 38 39 40 40 40 39 39 39 40 40 38 38 39 40 40 39 42 45 46 46 48 49 48 47 47 44 42 40 38 37 36 35 34 33 33
1 2 3 4 6 7 8 8 9 10 11 12 13 14 14 15 15 16 17 18 19 20 21 21 22 23 24 24 25 25 26 26 27 27 28 28 29 30 30 30 31 32 32 33 35 36 37 38 39 39 39 40 41 40 39 39 39 40 41 40 39 37 37 39 39 39 41 43 44 45 46 47 47 47 46 43 40 38 37 37 37 36 34 32 33
1 2 4 5 6 7 8 8 9 10 11 11 11 12 13 14 15 16 18 19 20 21 22 22 23 24 24 25 25 25 26 26 27 28 29 30 31 32 33 33 34 34 34 35 35 35 37 38 39 40 40 41 41 40 39 38 38 40 41 40 38 36 34 36 38 40 42 44 46 45 45 46 47 46 45 43 41 40 39 39 38 36 35 32 32
1 2 3 4 6 6 7 8 8 8 9 9 10 12 13 14 16 18 20 21 22 23 23 23 24 24 25 25 25 25 26 26 26 28 29 30 31 32 33 34 35 35 36 36 36 36 37 37 38 39 41 42 41 40 39 37 36 39 42 41 38 35 34 36 38 39 40 42 43 43 43 46 47 46 45 45 44 43 41 38 35 34 34 33 32
2 2 3 4 4 5 6 7 7 8 9 10 12 13 15 18 20 21 23 24 24 25 25 25 25 26 26 26 26 26 27 27 27 28 28 30 31 33 34 34 34 35 36 37 37 37 37 38 38 39 40 41 41 40 39 37 36 39 41 40 38 36 36 38 39 40 40 42 42 41 42 45 47 46 46 46 44 42 39 37 35 33 33 34 34
3 3 4 5 6 7 8 9 10 11 12 14 16 18 20 22 24 26 27 27 27 27 27 27 27 28 28 28 28 28 28 29 29 30 30 30 31 33 34 35 35 36 36 37 38 38 39 39 39 40 40 41 41 40 38 37 37 39 40 39 38 36 36 39 40 40 41 42 43 43 43 45 44 44 44 43 41 41 39 38 37 36 37 37 38
4 6 7 8 9 11 12 13 15 16 17 19 21 23 25 27 29 30 30 30 30 30 30 31 31 31 32 32 32 32 31 31 32 32 32 32 33 34 36 36 37 37 37 38 39 39 40 40 40 41 41 41 40 38 37 36 36 39 39 36 35 34 35 38 39 39 40 41 41 42 43 43 42 43 43 41 40 40 39 37 37 38 38 38 39
7 9 11 12 14 15 16 18 19 21 22 24 25 27 28 30 31 32 31 31 32 33 33 34 35 35 36 37 37 37 36 35 36 36 36 36 36 36 38 38 39 39 39 39 39 40 41 41 42 42 42 41 40 38 36 35 36 38 38 33 31 32 33 36 38 39 39 40 42 43 43 41 42 43 42 39 39 39 38 38 38 38 37 38 40
10 12 14 16 17 19 20 21 22 24 25 26 28 29 30 31 32 32 33 33 34 35 36 37 38 39 39 41 41 42 41 40 39 40 40 40 39 40 41 41 41 41 41 40 40 40 40 41 42 43 42 42 41 39 37 35 35 36 36 32 31 32 32 35 36 37 37 39 41 43 41 39 39 40 39 37 37 36 36 37 37 37 38 39 40
12 15 17 19 21 22 24 24 25 26 27 28 30 30 31 32 32 33 34 35 36 37 38 39 40 41 42 43 44 45 45 43 42 42 42 42 42 43 43 43 44 44 44 42 41 41 40 40 41 42 42 42 42 40 38 35 34 35 35 33 32 32 33 34 34 35 37 39 39 39 38 37 37 38 37 35 33 32 32 33 34 36 39 40 39
16 19 20 22 24 26 27 27 28 28 29 30 30 31 31 32 33 34 35 36 37 38 39 40 41 42 43 44 45 46 46 46 45 44 44 44 44 44 45 45 46 46 46 44 43 42 42 41 40 40 41 41 41 39 36 34 33 35 35 33 33 33 34 34 33 33 35 35 35 35 34 35 36 37 35 31 29 30 32 33 35 38 41 40 37
20 22 24 25 26 27 28 29 29 29 30 30 31 31 32 33 34 35 36 37 37 38 39 40 41 42 43 44 45 47 47 46 45 45 44 44 44 45 46 46 47 48 47 45 44 43 43 42 41 40 41 41 40 38 35 32 32 34 35 35 35 35 36 35 33 33 33 33 33 33 33 34 35 34 31 28 28 31 35 38 40 42 42 40 37
22 23 25 26 26 27 28 29 29 30 30 31 31 32 32 33 34 35 36 37 38 39 40 40 41 42 42 43 44 46 47 45 44 43 43 42 43 44 45 46 47 48 48 47 46 45 44 43 42 41 41 40 38 37 33 30 31 34 36 37 37 38 37 36 34 34 33 32 32 32 33 33 33 31 28 28 29 32 35 38 41 42 41 39 36
23 23 24 25 25 26 27 27 28 29 30 31 31 32 33 33 34 35 36 37 39 39 40 41 42 42 42 43 44 45 46 45 43 42 42 41 41 42 43 44 45 46 46 47 47 46 45 44 43 42 41 39 36 34 31 29 30 33 35 37 40 40 38 36 35 34 32 31 30 30 31 32 31 28 27 28 30 32 34 37 38 39 39 38 36
22 22 23 23 23 24 25 26 27 28 29 30 31 32 33 34 35 36 36 37 39 39 40 41 42 43 42 43 43 43 44 44 42 41 41 41 41 41 41 42 43 44 44 45 46 46 46 44 43 43 41 38 35 32 29 29 31 33 35 37 39 39 36 35 35 34 31 29 27 26 27 29 29 28 27 28 30 31 34 36 36 35 35 35 36
20 20 21 21 22 23 23 25 26 27 29 30 31 32 33 34 35 36 37 38 39 40 41 41 42 43 43 43 43 43 43 43 42 41 41 41 41 41 41 41 41 41 43 44 45 45 45 44 42 42 41 39 35 31 29 29 31 33 35 37 37 34 33 34 34 31 29 27 26 25 27 28 29 28 28 30 31 33 36 36 34 33 33 33 36
19 20 20 21 22 23 23 25 26 27 29 30 32 33 33 34 35 37 38 39 40 41 42 42 43 44 44 44 44 43 43 43 43 43 42 42 42 42 42 41 40 39 41 43 43 43 43 42 42 41 40 38 36 33 30 31 32 34 35 35 35 32 31 33 32 28 27 27 27 27 29 30 31 31 31 33 33 33 36 35 34 33 33 31 32
20 20 21 22 23 24 25 25 27 28 29 31 33 34 35 35 37 38 39 40 42 43 44 44 45 47 47 47 46 45 44 44 44 44 44 44 44 44 43 42 40 38 39 41 42 42 41 41 41 40 38 37 36 34 32 32 34 35 34 34 33 30 29 30 30 28 28 29 29 30 31 32 33 33 34 34 33 32 34 34 32 32 31 29 26
21 21 22 23 24 25 26 27 28 30 31 32 34 36 37 38 39 40 41 43 44 46 47 47 48 50 51 51 51 49 49 47 46 46 46 46 45 45 45 44 42 39 38 40 41 40 40 40 39 38 36 36 35 34 33 34 35 35 34 33 31 28 27 30 31 29 29 31 31 32 32 33 35 35 35 34 33 33 33 33 31 31 31 29 27
22 23 24 26 27 28 29 30 31 32 33 34 35 37 38 39 40 41 42 43 45 46 47 48 49 51 52 53 53 53 52 52 51 49 48 48 47 47 46 46 44 40 39 40 41 40 39 39 38 37 35 35 35 35 35 36 35 33 32 30 29 27 28 31 32 30 31 33 33 33 34 35 35 35 34 33 33 34 34 34 33 31 30 28 26
24 25 26 28 29 30 31 32 33 33 34 35 36 37 38 40 41 42 43 44 45 47 48 48 49 51 52 52 53 53 53 54 53 52 51 50 50 49 48 47 46 43 41 40 40 39 38 38 36 35 34 35 35 36 37 36 34 32 29 28 27 28 30 32 32 32 32 34 34 35 36 37 35 33 33 33 34 36 36 35 33 31 29 27 26
26 27 29 30 31 31 32 33 34 34 35 36 36 37 38 40 42 43 44 46 47 48 49 50 51 52 53 53 53 53 53 53 53 53 52 51 51 50 49 48 47 46 45 43 40 37 37 37 36 34 33 34 35 36 37 37 35 32 30 28 28 29 30 32 32 31 31 34 36 37 37 37 35 34 35 35 36 36 34 32 31 31 29 27 25
27 28 29 30 31 32 33 34 35 36 37 38 39 40 41 42 43 44 45 47 48 50 51 51 52 52 53 53 54 54 54 54 53 52 52 52 51 50 49 47 46 45 45 44 41 38 37 37 38 36 34 34 35 35 36 37 36 33 30 28 28 30 32 33 32 30 32 36 39 38 38 37 37 37 37 37 36 35 31 29 29 29 28 26 24
28 29 30 31 33 34 35 37 38 39 40 41 42 43 43 44 46 47 46 47 49 51 52 53 53 53 53 53 53 54 55 55 53 52 52 51 50 48 46 45 44 41 41 40 38 37 38 38 39 39 37 35 35 35 36 36 35 33 30 28 28 31 34 35 33 33 36 39 40 40 40 39 38 39 39 36 35 33 30 29 28 27 27 25 24
29 30 32 34 35 37 38 40 41 42 43 45 46 47 47 47 48 50 50 50 50 51 53 54 54 54 54 54 54 54 55 55 54 52 51 51 49 46 43 42 41 38 37 35 33 35 38 39 40 41 39 36 36 36 36 36 35 33 30 28 28 32 36 37 36 37 38 39 40 42 41 39 40 40 39 36 34 32 31 31 29 26 25 25 24
31 33 34 35 37 39 40 41 43 44 45 46 48 50 52 52 52 53 54 54 54 54 55 55 56 54 54 55 55 54 54 54 52 51 51 50 48 45 42 41 39 37 34 31 31 34 37 37 39 42 40 37 37 38 37 36 35 32 30 29 29 33 37 38 39 40 39 38 41 42 40 40 41 41 39 36 35 34 34 32 30 27 25 24 24
33 34 36 37 38 40 41 43 44 46 47 48 50 51 54 56 57 57 57 57 57 57 57 57 57 56 54 54 53 54 54 53 50 48 47 46 46 46 43 40 37 35 32 30 31 35 37 37 38 41 41 39 38 38 38 37 35 33 31 30 31 33 37 40 41 41 38 38 41 41 40 41 42 40 38 36 35 36 36 33 30 27 25 23 22
33 35 36 38 39 41 42 44 45 47 48 49 50 51 52 54 57 59 61 61 60 60 59 58 58 57 56 54 51 50 50 50 49 47 45 44 43 42 40 37 35 33 31 30 32 35 36 36 36 38 41 40 38 38 38 36 34 33 31 31 33 35 38 41 42 39 37 38 40 40 40 42 41 39 37 35 35 36 35 32 29 28 26 25 24
33 35 36 38 40 41 43 44 45 47 47 48 49 51 52 53 54 57 60 62 63 64 63 61 59 57 55 55 52 48 46 47 48 46 44 42 40 37 34 34 34 33 31 31 33 34 35 35 35 37 40 40 39 38 37 35 33 32 31 31 33 35 38 40 41 38 38 39 39 40 42 42 41 38 37 36 36 34 33 31 30 28 27 25 24
34 35 37 38 39 41 42 43 45 46 47 48 49 50 51 52 52 53 55 56 59 62 63 63 61 56 53 53 53 51 47 45 43 41 40 39 37 34 32 33 35 35 33 32 33 35 35 36 37 38 39 39 39 38 36 34 33 32 31 31 34 36 38 40 40 38 39 40 40 41 42 41 38 37 37 37 37 35 32 31 29 27 26 25 24
35 36 37 38 40 41 43 44 45 46 47 48 49 49 50 51 51 52 52 53 54 57 59 61 61 58 55 51 50 51 50 45 38 36 37 37 35 33 32 33 35 35 34 33 34 35 37 36 36 37 37 37 38 38 36 34 32 32 32 32 34 36 38 40 40 39 39 39 40 40 40 37 35 36 36 35 35 33 31 30 28 26 25 24 22
36 37 38 40 42 44 45 46 47 47 48 48 49 49 50 50 50 50 51 52 53 54 56 58 59 58 57 52 45 44 46 45 40 37 37 36 32 30 31 34 35 34 34 34 34 34 36 36 36 36 36 36 37 37 35 33 31 30 31 32 33 36 38 38 39 38 38 38 39 39 36 34 35 36 37 36 35 33 31 29 28 26 24 23 21
36 38 40 41 43 44 46 47 47 47 48 48 48 49 49 49 49 49 48 49 50 51 53 54 54 53 54 50 41 34 36 41 43 43 40 34 29 27 29 32 34 34 34 34 33 33 33 34 34 35 35 35 35 35 34 32 30 30 31 31 32 35 36 37 39 39 38 37 38 37 34 33 35 37 37 36 34 33 31 30 28 26 25 23 22
37 39 40 41 42 43 44 45 46 46 46 47 47 47 48 48 48 48 48 48 49 50 50 51 51 49 46 42 36 33 35 40 44 46 43 37 31 28 28 31 33 35 35 34 34 33 32 32 33 34 34 34 34 33 32 31 30 29 30 30 32 35 37 38 39 39 37 36 36 35 33 34 36 37 36 34 32 31 30 29 28 26 24 21 19
38 38 39 39 40 41 41 42 43 43 44 45 45 45 46 47 47 48 48 48 48 49 48 47 48 47 42 36 33 35 40 44 46 45 44 40 35 31 31 33 35 36 35 35 34 32 31 31 31 32 32 32 32 30 29 30 29 28 28 29 31 33 35 37 37 36 34 33 34 33 33 34 36 36 35 33 31 30 29 28 26 24 20 17 17
36 37 37 37 37 38 38 39 40 40 41 42 43 44 45 46 46 46 46 46 46 46 46 46 46 44 41 38 36 37 39 43 44 43 42 39 36 35 35 35 36 35 35 34 33 31 30 30 29 29 29 29 29 28 27 27 27 26 25 27 30 33 35 36 35 33 32 33 33 32 32 34 36 37 35 33 31 30 28 26 24 22 20 19 18
33 34 34 34 34 35 36 37 38 39 39 40 42 43 44 45 45 44 44 44 44 44 45 46 45 44 43 43 42 39 37 38 40 40 38 37 37 37 37 36 35 34 33 32 31 30 28 27 26 26 27 27 26 25 24 25 25 23 24 26 29 32 35 36 33 32 32 33 31 30 31 33 35 35 34 32 31 30 28 26 24 23 21 20 19
30 30 31 31 32 32 33 34 36 37 38 39 41 42 43 43 43 43 43 43 43 42 42 43 44 45 45 44 42 39 37 37 38 38 37 37 37 37 37 35 33 31 29 28 27 25 24 23 24 25 25 24 22 22 22 22 21 20 21 24 27 30 33 34 32 32 32 31 29 29 31 33 34 34 33 32 31 29 27 26 25 23 20 19 17
27 27 28 29 29 30 31 32 33 35 37 38 39 40 41 41 41 40 39 40 39 38 38 39 41 44 44 43 41 39 39 39 39 39 38 37 36 35 33 31 28 26 24 24 23 22 21 22 23 22 21 19 19 19 20 19 18 17 18 20 23 26 30 31 30 30 30 28 27 28 30 32 33 33 33 31 30 28 27 25 24 21 19 18 17
25 25 26 27 27 28 29 30 32 33 35 36 38 39 40 41 41 39 38 37 37 37 37 38 39 41 42 42 41 41 41 41 40 39 37 35 33 30 28 26 24 23 22 21 20 20 20 20 19 17 15 15 16 17 17 17 16 16 16 16 18 21 24 26 27 28 27 26 26 28 30 31 32 32 31 30 28 26 25 23 21 20 18 16 15
23 24 25 25 26 27 28 29 31 32 34 35 36 38 39 40 41 40 39 37 36 36 36 37 38 39 39 40 40 39 39 38 37 35 32 30 28 26 24 22 21 20 19 18 18 19 18 16 13 11 10 10 11 13 14 14 13 13 14 14 16 19 22 24 25 24 23 24 25 27 29 30 30 29 29 27 25 23 22 20 19 17 15 14 14
22 22 23 24 25 26 27 29 30 31 32 33 35 36 38 39 41 41 40 38 36 35 35 35 36 36 36 36 35 35 34 33 32 30 29 27 25 23 21 19 18 17 16 16 17 17 15 11 8 7 7 7 7 8 9 9 9 9 10 11 14 18 21 22 20 19 20 22 23 24 26 26 27 27 26 25 23 22 21 19 17 16 15 14 15
21 21 22 23 24 26 27 29 30 31 32 33 34 35 36 38 40 41 41 40 38 36 35 34 34 34 34 33 32 31 30 29 28 26 25 23 22 20 19 17 15 15 14 14 15 14 11 7 5 5 6 5 5 6 7 8 9 10 11 12 15 17 17 16 16 17 19 20 21 22 22 22 23 23 23 22 21 20 18 17 16 16 16 16 16
20 21 22 23 24 25 27 28 29 31 32 33 33 34 35 36 38 39 40 40 39 37 35 34 33 33 32 31 30 29 27 25 24 22 21 20 20 19 16 15 13 13 12 12 11 10 8 6 4 4 4 5 5 7 9 11 12 14 15 15 17 17 17 17 17 19 20 21 22 22 21 20 19 19 18 18 18 17 16 16 16 16 16 16 16
20 21 22 23 24 25 26 27 28 29 30 31 32 33 34 35 36 37 38 39 39 37 35 34 32 32 31 30 28 27 25 24 22 20 19 19 18 16 14 13 12 11 9 7 6 6 5 5 4 4 4 6 7 8 10 12 13 15 16 17 19 19 20 20 20 21 21 21 21 20 20 19 18 18 17 17 17 16 16 16 16 15 16 16 15
20 21 22 23 23 24 25 26 27 28 29 30 31 32 32 33 34 35 36 37 37 37 36 34 32 31 29 27 26 25 24 23 21 20 18 17 16 14 12 10 9 7 5 4 3 3 4 4 4 4 4 6 8 10 11 12 13 13 14 15 16 17 18 19 19 19 19 18 18 17 17 17 17 16 16 16 16 16 16 16 15 15 15 15 15
Wind_Direction
312 315 318 320 322 322 321 322 323 327 332 337 343 347 353 357 358 355 350 345 343 343 340 336 331 327 322 316 309 302 296 292 287 286 284 284 284 283 282 280 279 280 280 279 279 278 279 279 279 280 279 278 276 275 275 274 273 272 269 270 271 268 266 266 265 269 274 275 275 278 280 282 284 285 285 285 284 283 280 278 276 271 267 262 255
310 312 316 317 318 318 316 318 322 332 347 1 10 10 10 10 8 3 359 353 351 350 347 344 341 338 335 329 322 315 309 304 300 296 294 293 291 288 286 284 283 282 281 280 280 278 278 277 277 277 276 275 274 273 274 274 274 273 270 268 271 269 266 266 267 268 272 274 275 277 280 282 283 283 284 284 283 281 279 276 274 270 266 260 254
304 309 315 317 320 321 319 326 339 356 7 11 9 5 1 358 355 352 349 345 343 342 340 339 338 336 336 333 329 326 322 317 313 309 305 302 299 296 294 291 289 288 286 284 283 280 278 278 277 277 276 276 276 275 276 277 277 276 273 271 272 271 267 267 268 269 272 274 276 277 279 280 280 282 283 282 281 279 276 274 270 265 261 256 249
317 324 329 331 339 340 338 346 353 355 354 351 350 349 347 345 342 341 339 337 335 334 333 331 329 328 327 326 325 324 323 321 319 317 314 309 305 302 299 296 294 293 291 289 287 284 282 281 280 281 280 278 278 278 278 279 279 279 278 275 274 271 268 267 268 269 272 275 276 277 278 279 279 280 280 279 278 276 274 270 265 260 255 250 243
344 336 330 327 328 329 330 333 333 332 332 334 334 335 336 336 335 334 334 333 332 331 330 328 326 326 324 323 321 320 319 319 319 318 316 312 309 305 301 298 296 294 293 291 290 287 285 284 283 282 281 279 279 279 279 279 280 281 281 279 277 273 268 266 268 270 271 274 275 276 277 277 278 279 278 277 275 273 269 264 259 253 248 243 236
217 295 300 303 307 310 314 316 318 321 324 326 328 330 332 332 333 333 334 334 334 333 332 330 328 327 325 323 321 320 319 318 317 316 315 313 310 308 305 303 300 297 295 293 291 289 287 286 285 283 281 280 281 280 279 279 280 281 281 282 282 278 270 265 266 269 270 271 274 275 276 277 277 277 276 275 272 269 265 259 253 247 243 238 231
229 268 283 291 296 301 304 309 316 321 324 328 331 332 334 334 335 336 336 337 337 335 334 333 331 329 327 325 323 321 320 318 317 315 314 312 311 309 308 306 304 302 299 297 294 292 290 288 287 285 282 281 281 280 279 278 279 279 281 283 283 280 273 266 266 269 271 272 273 274 275 276 275 273 273 271 267 263 259 254 248 243 237 232 225
258 284 293 298 300 302 308 315 321 325 328 332 334 335 336 336 336 337 337 336 335 334 333 331 330 329 327 326 325 322 321 319 317 314 312 310 308 307 306 305 304 303 302 300 298 295 293 291 289 287 285 283 281 280 279 278 278 279 281 283 284 280 274 269 268 269 270 270 271 272 273 273 272 270 269 265 260 256 253 250 246 241 233 225 220
293 301 300 303 305 309 316 321 324 327 328 329 330 330 332 334 334 334 334 333 332 331 330 329 327 326 325 325 324 322 321 319 317 315 313 311 308 306 305 304 303 303 301 300 299 297 295 293 291 288 286 284 282 280 280 278 278 279 281 284 284 278 272 271 270 270 270 270 271 271 270 270 269 267 265 262 260 258 253 246 240 237 231 222 216
349 338 327 324 323 324 324 323 323 323 322 323 325 327 328 329 330 331 330 329 328 327 326 326 325 324 323 322 322 321 321 320 317 315 313 311 309 307 306 305 304 304 302 301 300 298 296 293 291 288 286 284 283 282 282 280 277 277 280 283 281 274 270 270 269 270 272 273 273 273 271 269 269 267 266 266 263 258 251 244 236 229 223 215 209
353 343 339 336 332 329 325 323 322 321 321 322 322 324 325 326 327 327 327 326 324 323 323 322 322 322 321 320 320 320 320 320 319 317 316 314 311 308 306 305 305 305 305 304 303 301 299 296 293 290 287 284 284 283 283 283 281 281 282 282 277 270 267 269 270 270 271 271 272 272 270 269 270 270 269 267 262 255 250 245 237 226 218 212 208
337 333 331 329 326 325 323 321 321 320 320 321 320 321 323 324 324 324 324 324 323 322 322 321 321 321 320 319 319 318 319 318 317 317 316 315 314 311 309 308 307 307 307 306 306 305 304 301 298 294 290 288 287 285 285 285 283 285 287 285 276 266 263 267 271 272 272 272 272 270 269 269 270 270 270 267 262 255 248 241 234 227 221 217 213
329 326 326 324 322 322 321 319 319 319 318 319 319 320 321 321 322 322 322 322 322 321 321 321 321 321 320 319 318 318 318 318 317 316 315 315 315 313 311 310 309 309 308 308 308 307 307 305 303 300 297 293 290 288 286 285 284 286 291 290 280 270 265 265 269 272 273 272 271 270 270 269 268 270 272 269 261 252 242 234 230 227 224 221 219
324 322 322 321 320 320 320 319 318 318 317 317 318 318 319 320 320 320 321 321 321 320 320 320 320 320 319 318 318 317 319 319 319 318 317 316 315 313 312 311 310 310 310 309 308 308 307 306 304 303 301 298 294 291 287 286 284 286 289 288 282 278 274 269 269 272 273 273 271 270 270 269 269 271 272 267 261 255 248 241 235 228 222 219 218
320 320 319 319 319 318 318 318 318 318 317 317 317 318 318 319 319 319 319 319 319 319 319 318 318 318 317 317 316 315 317 319 320 319 318 317 315 313 312 310 310 309 309 309 308 307 306 304 303 302 301 299 297 293 289 286 283 283 285 285 282 280 278 275 273 272 273 274 273 271 271 270 270 270 268 266 264 261 256 250 241 228 217 213 213
319 318 318 318 318 318 318 318 318 318 317 316 316 317 317 317 317 316 316 316 316 316 315 315 315 315 315 315 314 312 313 316 318 318 318 317 315 313 311 310 309 308 308 308 307 306 305 303 302 300 299 297 296 293 289 286 281 281 283 282 281 281 279 278 278 277 276 276 273 271 270 268 268 267 265 264 260 251 240 231 225 218 211 206 207
317 316 317 316 316 317 317 317 317 316 316 315 314 315 315 315 315 314 313 313 312 312 312 311 311 312 312 312 312 310 310 313 315 315 315 315 313 311 311 310 308 308 308 308 306 304 303 302 301 299 298 296 295 292 289 284 278 277 279 280 281 281 280 281 282 280 279 279 275 271 267 264 263 262 259 255 252 243 230 219 214 211 206 203 202
315 314 314 313 313 314 314 314 314 314 313 313 312 312 313 313 313 313 312 311 310 310 310 309 308 309 309 309 310 309 308 310 313 313 312 312 311 310 309 308 307 307 307 307 306 304 303 302 300 299 298 297 295 292 289 284 277 275 276 278 279 279 281 285 287 285 282 278 274 270 265 261 257 253 248 246 244 240 233 224 217 210 205 204 204
312 311 310 309 310 310 310 311 311 311 311 311 311 311 312 312 312 312 311 310 309 308 308 308 306 306 307 307 307 307 307 308 310 311 311 311 311 310 309 308 307 306 307 306 304 304 304 303 302 300 298 297 295 292 288 283 277 275 277 279 279 278 280 285 288 287 284 279 274 270 265 258 250 240 237 240 240 238 233 229 223 214 207 206 206
309 307 307 307 307 309 309 310 311 311 311 310 311 312 313 312 312 311 310 309 308 307 307 307 306 305 305 305 305 305 305 305 306 307 308 308 310 310 309 308 307 307 306 305 304 304 304 305 304 302 300 297 294 290 285 279 276 276 277 278 279 280 282 284 284 285 282 277 272 267 261 253 241 231 229 233 234 229 224 224 224 219 212 207 205
306 305 306 307 308 310 311 311 312 312 312 312 311 312 313 312 311 310 309 308 307 306 306 305 305 303 302 303 303 304 305 305 304 304 304 305 307 308 308 307 307 306 305 304 304 305 305 306 305 303 301 298 295 290 281 274 274 274 274 276 278 282 284 282 281 280 277 271 265 257 250 241 231 225 223 223 222 219 217 217 217 217 215 210 204
306 307 309 310 311 313 313 314 314 313 313 312 311 310 311 310 309 308 308 307 306 305 305 304 304 303 301 301 301 302 303 304 304 303 303 303 304 306 307 306 306 304 302 302 303 304 304 305 304 303 301 298 295 290 279 272 272 272 271 274 278 281 280 278 277 274 267 262 255 247 239 231 222 218 216 215 214 211 210 210 210 212 215 211 203
310 311 312 313 314 315 314 315 314 313 312 311 309 309 308 308 307 306 306 305 304 304 303 304 304 303 302 301 301 301 302 303 303 304 304 304 304 304 305 305 304 301 299 300 301 302 302 302 301 301 300 297 296 291 282 274 272 271 271 274 276 277 274 271 270 266 260 253 246 238 232 225 218 213 211 210 208 205 205 206 208 208 204 196 190
313 314 315 315 315 314 314 313 312 312 310 309 308 307 307 306 306 305 305 305 305 304 304 304 304 304 303 302 302 302 302 302 302 302 303 303 303 303 303 303 301 299 297 298 299 298 298 298 298 298 298 296 295 291 283 275 273 272 272 274 274 271 265 262 261 258 252 245 238 232 227 221 217 213 210 207 204 202 201 200 198 194 189 183 180
315 315 315 315 314 313 313 312 312 311 310 310 309 309 309 309 308 308 308 308 308 307 307 307 306 306 305 305 304 303 303 302 301 301 301 302 301 301 301 300 299 298 296 296 296 295 295 295 295 295 295 295 293 289 283 277 275 275 274 272 270 263 256 255 256 252 244 237 231 225 220 217 214 212 210 207 202 197 193 189 185 184 183 181 180
313 313 313 313 313 313 313 313 313 313 313 312 312 312 312 312 311 311 311 310 310 310 309 309 308 308 307 307 306 306 304 303 302 301 301 300 300 299 298 297 297 296 295 293 293 292 292 292 292 292 293 293 290 287 282 278 276 275 272 266 260 254 250 249 248 245 240 233 225 220 218 214 210 207 205 201 196 192 189 186 181 180 180 178 176
312 313 313 314 314 314 315 315 315 315 314 313 313 312 312 312 311 311 311 311 311 310 309 309 308 308 308 308 307 306 306 305 304 303 302 300 299 299 298 297 297 297 295 294 292 290 289 290 289 289 289 289 287 284 281 278 276 273 269 262 255 250 248 246 245 244 239 229 223 220 216 209 204 200 196 193 191 189 189 187 181 177 176 177 177
313 314 314 315 315 316 316 316 316 316 315 314 314 314 313 313 311 311 311 311 311 310 309 308 307 307 307 306 306 306 305 305 306 305 303 300 299 298 297 297 297 297 295 294 293 292 290 289 288 288 287 286 285 282 280 278 276 273 269 263 254 247 244 243 241 239 233 226 222 218 210 203 200 197 193 191 189 186 184 184 182 178 176 178 180
314 315 316 317 318 318 318 318 318 317 317 316 315 315 314 313 312 311 310 310 310 309 308 307 307 307 306 305 305 304 304 304 306 305 303 300 298 298 297 296 296 295 293 292 292 290 289 287 287 287 286 285 283 281 279 278 276 273 269 263 252 242 239 238 233 227 225 223 220 215 209 204 201 196 191 189 186 182 179 180 180 178 179 181 184
317 318 319 320 320 320 320 320 319 319 318 317 315 314 313 312 311 310 310 309 308 308 307 307 307 307 306 305 304 303 302 303 304 303 301 299 298 296 295 294 294 294 292 290 288 285 283 283 283 283 283 284 282 279 278 277 274 271 268 261 249 240 237 234 228 224 224 222 217 214 212 208 202 195 189 186 182 180 179 179 180 181 184 185 186
319 320 321 320 320 320 320 319 319 318 317 316 316 314 313 312 311 310 310 309 308 307 307 307 306 306 305 304 304 303 302 302 302 301 300 298 297 295 294 293 292 292 291 289 284 280 278 277 278 279 280 281 280 278 277 274 271 269 266 259 248 239 234 229 225 224 224 219 215 214 213 209 202 194 187 185 184 183 181 181 182 184 186 189 192
319 320 320 320 320 319 318 318 318 317 317 317 316 316 315 313 312 311 310 310 309 308 307 307 306 306 306 305 303 302 301 300 300 298 296 295 294 294 294 294 292 291 290 285 278 274 273 273 273 276 278 279 280 278 276 273 271 270 266 257 246 236 229 226 225 225 223 220 217 214 211 206 199 191 187 189 189 185 183 184 185 183 185 190 195
319 319 319 319 319 318 318 318 317 317 317 317 316 316 315 314 313 312 311 311 310 309 309 308 307 306 306 305 304 302 300 299 299 297 295 293 292 293 295 295 293 291 289 282 273 271 271 271 271 273 276 279 279 276 274 273 272 270 265 256 245 235 227 225 225 224 223 223 221 215 208 202 195 188 188 191 190 186 186 187 186 183 185 190 194
317 317 318 318 318 318 318 317 317 317 317 317 317 317 316 315 315 314 313 312 311 310 309 309 309 308 307 305 304 302 300 299 299 298 296 294 293 295 298 296 293 290 286 279 273 270 270 271 271 272 276 279 278 274 272 272 270 266 261 253 243 234 227 223 221 220 221 222 219 211 204 198 193 191 192 191 188 188 190 190 187 186 189 195 199
316 317 317 318 317 317 317 317 318 318 318 318 318 317 317 316 315 314 313 313 311 310 309 308 308 308 308 306 305 304 303 303 301 299 297 294 294 296 296 291 288 288 287 282 277 275 274 275 276 276 277 278 276 272 270 269 267 264 259 251 241 234 228 222 218 218 220 219 214 207 202 197 195 197 196 190 187 190 192 192 191 191 194 199 202
318 318 318 318 318 319 319 320 320 320 320 320 319 318 318 317 316 315 314 313 312 311 310 308 308 308 308 308 307 306 307 305 301 297 295 293 292 292 288 282 281 284 284 283 281 279 280 280 279 278 279 277 274 271 268 268 267 264 259 252 244 238 231 223 218 217 218 217 213 207 202 198 198 197 194 190 190 192 193 193 194 195 198 202 204
319 320 321 322 322 322 322 322 323 323 323 322 321 320 319 318 317 317 316 314 313 312 310 309 309 309 309 309 308 307 307 305 303 301 301 298 293 288 283 282 284 284 283 283 282 282 282 282 281 281 281 276 271 269 267 267 267 263 257 251 247 241 234 226 221 219 217 216 213 207 201 199 199 196 192 190 192 193 193 194 196 196 198 203 205
322 324 325 325 325 324 324 324 324 324 324 324 323 323 322 320 319 318 316 314 313 311 309 309 310 310 310 311 310 307 305 305 305 306 306 304 296 286 282 285 289 289 286 286 286 284 283 283 283 283 281 274 269 270 269 267 265 260 254 250 245 238 231 226 222 218 216 216 213 205 200 199 199 195 193 193 194 194 194 195 196 197 200 204 207
325 326 325 325 325 325 325 325 325 325 326 326 326 325 324 323 321 320 317 315 313 312 311 312 312 311 311 310 308 306 305 304 304 305 305 302 296 288 283 286 290 291 290 290 289 287 286 285 284 282 278 273 271 271 269 266 262 258 254 249 241 232 226 222 218 216 217 216 209 202 199 200 198 195 195 196 196 197 197 196 198 202 206 208 208
325 325 325 325 326 326 326 326 327 328 328 328 328 328 326 325 323 321 320 318 317 315 315 313 312 313 311 306 301 303 305 304 304 304 305 302 297 291 288 288 290 291 291 291 291 290 289 288 286 283 280 276 271 268 266 265 261 257 254 249 241 234 227 221 218 219 216 209 202 200 201 200 196 194 195 196 197 199 200 200 200 203 205 207 207
324 324 325 326 327 327 328 329 330 330 331 331 331 331 330 329 327 325 323 321 319 318 317 315 314 315 313 307 304 305 304 302 301 303 304 301 297 294 293 293 292 293 293 292 292 291 290 289 288 286 280 273 266 265 265 263 258 255 252 246 239 232 225 219 218 218 209 200 198 202 203 199 196 195 195 194 195 198 201 202 201 201 201 203 207
324 325 326 327 328 329 330 331 332 333 334 334 335 335 335 333 331 329 326 323 322 321 320 318 317 316 313 312 314 315 310 304 304 304 302 300 298 297 298 297 296 295 293 291 291 291 291 290 289 285 277 269 267 268 265 260 255 252 248 242 236 229 222 218 217 211 201 195 199 203 201 198 196 195 194 195 196 197 198 200 200 201 204 206 207
325 327 328 329 330 332 333 333 334 335 336 338 339 340 340 338 335 331 327 324 322 321 317 315 316 316 316 317 320 319 313 309 307 305 303 301 300 300 300 298 296 294 293 292 292 292 291 289 286 279 272 270 271 271 265 259 255 251 245 241 236 228 222 219 214 204 196 196 200 203 200 197 196 194 194 196 197 196 195 197 200 203 206 206 205
327 329 330 331 332 333 334 335 336 337 338 340 342 344 344 342 338 334 329 325 323 321 316 314 317 320 321 323 324 321 317 314 312 308 306 305 303 302 301 299 298 297 296 296 297 295 292 286 279 272 269 271 272 266 258 254 254 251 245 240 234 227 224 219 210 199 195 198 202 202 200 197 195 194 194 195 197 196 196 198 202 204 204 203 205
330 331 332 333 334 335 336 337 338 338 340 342 344 345 347 345 342 339 335 331 328 326 324 322 323 324 324 324 323 320 317 314 312 310 309 308 307 306 305 303 301 301 300 299 299 295 287 279 273 270 272 273 270 261 254 250 248 245 241 235 231 228 222 212 200 195 197 201 202 201 199 196 193 192 193 194 196 198 199 201 203 203 203 205 210
331 333 334 335 336 337 338 339 339 340 342 343 345 346 348 348 346 345 342 338 334 332 331 331 329 327 324 322 319 316 315 314 313 314 314 313 311 310 309 307 306 305 302 299 297 290 278 270 268 270 268 264 262 258 253 247 242 238 235 231 227 221 209 198 193 197 203 205 203 201 198 193 190 190 192 194 195 197 199 201 203 202 203 207 212
334 335 336 337 337 338 339 340 340 341 342 343 345 347 348 348 348 348 346 343 339 336 335 334 333 329 326 323 320 319 318 319 319 320 319 318 316 315 314 312 311 307 302 299 294 283 268 258 262 263 250 240 239 241 238 230 221 217 215 211 205 199 193 191 195 204 207 207 205 201 195 189 187 190 192 194 195 196 197 197 198 200 203 208 212
336 336 337 338 339 339 339 340 340 340 341 342 344 346 348 349 349 349 349 347 345 341 338 336 335 333 331 329 327 326 325 325 325 325 325 323 323 322 321 319 315 310 305 301 291 274 255 245 256 253 229 210 197 192 189 183 175 172 172 174 177 181 186 194 204 206 204 201 198 193 189 188 190 191 193 194 196 197 197 198 199 203 208 212 215
336 337 338 339 339 340 339 339 339 340 340 341 342 345 347 348 348 348 349 350 349 346 343 340 338 338 337 335 334 333 332 332 332 333 332 332 333 332 331 328 323 317 312 302 284 262 243 239 249 237 206 187 176 169 168 166 163 162 164 169 175 182 188 193 195 194 191 187 185 183 183 187 191 193 194 196 197 197 198 201 205 209 214 217 219
335 336 337 337 338 338 338 338 338 338 338 339 341 343 345 346 347 348 349 350 351 350 348 346 344 343 343 341 341 341 341 341 341 342 343 343 344 344 343 340 335 329 321 304 278 252 239 240 240 222 201 190 183 180 178 176 175 176 178 182 185 186 184 182 180 180 180 180 180 181 182 185 189 191 193 195 196 198 201 206 210 215 219 221 223
332 333 333 334 334 335 335 335 335 336 337 338 340 342 343 344 346 347 349 350 351 352 352 351 351 350 349 349 350 350 350 350 350 351 352 353 352 354 356 355 352 352 347 327 298 274 262 257 245 221 198 185 182 184 184 182 179 179 180 181 181 179 176 173 174 175 177 178 180 182 183 186 191 195 197 199 201 204 206 210 214 218 220 223 224
Height
1543 1543 1543 1542 1542 1542 1541 1541 1540 1540 1539 1538 1537 1536 1535 1534 1533 1532 1531 1529 1528 1527 1525 1524 1523 1522 1521 1520 1519 1518 1517 1517 1515 1514 1513 1512 1512 1511 1510 1509 1507 1506 1505 1504 1504 1503 1501 1500 1499 1499 1499 1497 1495 1494 1493 1493 1492 1490 1490 1489 1487 1487 1487 1485 1479 1468 1464 1467 1468 1467 1468 1468 1468 1468 1469 1469 1469 1468 1467 1467 1466 1466 1466 1466 1466
1542 1542 1542 1541 1541 1540 1540 1540 1540 1539 1538 1537 1536 1535 1534 1533 1532 1531 1530 1528 1527 1526 1524 1523 1522 1521 1520 1519 1517 1516 1515 1514 1513 1512 1510 1509 1508 1507 1506 1504 1503 1502 1501 1499 1498 1498 1496 1495 1493 1493 1494 1492 1490 1489 1488 1487 1487 1484 1484 1484 1481 1481 1482 1480 1475 1468 1461 1462 1464 1463 1463 1464 1463 1463 1463 1463 1463 1463 1462 1462 1462 1462 1462 1462 1461
1541 1540 1540 1540 1540 1540 1539 1539 1539 1538 1537 1536 1535 1534 1533 1532 1531 1530 1528 1527 1526 1524 1523 1522 1521 1519 1518 1517 1515 1514 1513 1511 1510 1509 1508 1506 1505 1503 1502 1501 1499 1497 1496 1495 1494 1493 1491 1489 1488 1488 1488 1486 1484 1484 1483 1482 1481 1479 1478 1478 1476 1475 1476 1475 1472 1467 1460 1458 1459 1459 1459 1459 1458 1458 1458 1458 1458 1457 1457 1457 1457 1457 1458 1457 1457
1539 1539 1539 1539 1539 1539 1538 1538 1537 1536 1535 1534 1533 1533 1531 1530 1529 1528 1527 1526 1524 1523 1521 1520 1519 1517 1516 1515 1513 1512 1510 1509 1508 1506 1504 1503 1501 1499 1498 1496 1495 1493 1491 1490 1489 1488 1486 1485 1484 1484 1483 1481 1479 1478 1478 1477 1476 1475 1473 1472 1471 1469 1470 1470 1468 1465 1460 1456 1455 1455 1454 1454 1453 1453 1453 1453 1453 1452 1452 1451 1452 1452 1453 1453 1453
1538 1537 1538 1538 1538 1538 1537 1536 1536 1535 1534 1533 1532 1531 1530 1529 1527 1526 1525 1524 1522 1521 1519 1518 1516 1515 1514 1512 1511 1509 1508 1506 1505 1503 1501 1500 1497 1496 1494 1492 1491 1489 1487 1486 1484 1483 1482 1480 1479 1479 1478 1476 1474 1473 1472 1471 1470 1469 1467 1466 1465 1464 1463 1463 1462 1461 1458 1453 1452 1451 1450 1449 1448 1448 1448 1448 1448 1448 1447 1447 1446 1447 1448 1448 1449
1537 1537 1537 1537 1537 1537 1536 1535 1534 1533 1533 1532 1531 1530 1528 1527 1526 1524 1523 1522 1520 1519 1517 1516 1514 1513 1511 1510 1508 1507 1505 1504 1502 1500 1498 1496 1494 1492 1490 1489 1487 1485 1483 1482 1481 1479 1477 1476 1474 1474 1473 1470 1469 1468 1467 1466 1465 1464 1462 1460 1460 1458 1457 1456 1456 1456 1453 1450 1449 1448 1445 1444 1444 1443 1443 1443 1443 1443 1442 1442 1442 1443 1443 1444 1446
1536 1536 1536 1536 1536 1535 1535 1534 1533 1532 1531 1530 1529 1528 1527 1526 1524 1523 1521 1520 1519 1517 1515 1514 1512 1510 1509 1507 1506 1504 1503 1501 1499 1497 1495 1493 1491 1489 1487 1485 1483 1481 1480 1478 1477 1475 1473 1472 1470 1469 1468 1466 1464 1463 1462 1461 1460 1458 1457 1455 1455 1453 1451 1450 1451 1450 1448 1446 1444 1443 1442 1440 1439 1438 1438 1439 1439 1438 1438 1438 1438 1438 1439 1441 1442
1535 1535 1535 1535 1535 1534 1533 1533 1532 1531 1530 1529 1528 1527 1526 1524 1523 1522 1520 1518 1517 1516 1514 1512 1511 1509 1507 1505 1504 1502 1500 1499 1496 1494 1492 1490 1488 1485 1483 1481 1479 1477 1476 1474 1472 1471 1469 1468 1466 1465 1463 1461 1460 1459 1458 1457 1455 1453 1452 1451 1450 1448 1446 1446 1446 1445 1443 1441 1440 1439 1438 1436 1434 1434 1434 1433 1433 1432 1432 1433 1433 1434 1436 1437 1439
1534 1534 1534 1534 1533 1532 1532 1531 1530 1530 1529 1528 1527 1526 1524 1523 1521 1520 1519 1517 1516 1514 1512 1511 1509 1507 1506 1503 1502 1500 1498 1496 1494 1492 1490 1487 1485 1482 1480 1478 1476 1474 1472 1470 1468 1467 1465 1463 1462 1460 1459 1457 1455 1454 1453 1452 1451 1449 1447 1446 1445 1443 1442 1442 1440 1439 1438 1436 1435 1435 1434 1431 1429 1429 1428 1427 1427 1427 1428 1429 1430 1432 1433 1435 1437
1533 1533 1533 1532 1532 1531 1530 1530 1529 1528 1527 1526 1525 1524 1522 1521 1520 1518 1517 1515 1513 1511 1510 1508 1506 1505 1503 1501 1500 1498 1496 1494 1492 1490 1487 1485 1482 1479 1477 1475 1473 1470 1468 1466 1464 1462 1460 1458 1456 1455 1453 1451 1450 1449 1447 1447 1446 1444 1442 1441 1440 1438 1437 1436 1435 1434 1433 1431 1430 1430 1429 1426 1424 1424 1423 1423 1424 1425 1425 1426 1428 1429 1431 1433 1435
1531 1531 1531 1530 1530 1529 1529 1528 1527 1526 1525 1524 1522 1521 1520 1518 1517 1515 1514 1512 1510 1509 1507 1505 1503 1502 1500 1498 1497 1495 1494 1492 1489 1487 1485 1482 1479 1476 1473 1471 1469 1467 1464 1462 1459 1457 1455 1453 1451 1449 1447 1446 1444 1443 1442 1441 1440 1439 1437 1436 1435 1433 1432 1431 1429 1429 1428 1427 1425 1425 1423 1421 1420 1420 1420 1421 1421 1421 1422 1423 1424 1425 1426 1427 1429
1529 1529 1529 1528 1528 1527 1526 1526 1525 1523 1522 1521 1520 1518 1517 1515 1513 1511 1510 1508 1506 1505 1503 1501 1500 1498 1496 1494 1493 1491 1490 1488 1486 1484 1481 1479 1476 1472 1469 1466 1464 1462 1460 1458 1455 1453 1450 1448 1446 1444 1442 1440 1439 1437 1436 1435 1434 1433 1431 1430 1428 1428 1427 1426 1425 1424 1424 1422 1421 1420 1418 1417 1416 1415 1416 1417 1417 1417 1418 1419 1420 1421 1422 1424 1425
1528 1527 1527 1526 1526 1525 1524 1523 1522 1521 1520 1518 1517 1515 1513 1512 1510 1508 1506 1505 1503 1501 1499 1497 1496 1494 1491 1489 1487 1486 1485 1483 1481 1479 1477 1475 1472 1469 1465 1462 1460 1457 1455 1453 1450 1448 1445 1443 1440 1438 1437 1435 1433 1432 1431 1430 1429 1427 1426 1424 1423 1422 1422 1422 1421 1420 1420 1418 1416 1414 1413 1414 1412 1411 1412 1413 1413 1413 1414 1415 1416 1417 1419 1420 1421
1526 1526 1525 1525 1524 1523 1522 1521 1520 1519 1517 1516 1514 1512 1510 1508 1506 1504 1502 1501 1499 1497 1495 1493 1491 1489 1487 1485 1482 1480 1479 1478 1476 1474 1471 1469 1467 1463 1460 1457 1455 1452 1450 1448 1445 1443 1441 1438 1435 1433 1432 1430 1428 1427 1425 1424 1423 1422 1420 1418 1417 1417 1417 1416 1416 1416 1415 1413 1411 1409 1409 1410 1408 1407 1409 1409 1409 1409 1410 1410 1411 1414 1416 1417 1419
1525 1524 1524 1523 1521 1520 1519 1518 1517 1516 1514 1512 1510 1509 1507 1505 1503 1501 1499 1497 1495 1493 1491 1489 1487 1485 1483 1480 1478 1475 1474 1473 1471 1468 1466 1464 1461 1458 1455 1452 1450 1447 1445 1443 1441 1438 1436 1433 1431 1429 1427 1425 1423 1421 1420 1419 1417 1416 1414 1412 1412 1411 1411 1411 1411 1411 1410 1408 1407 1405 1405 1406 1405 1404 1405 1405 1405 1406 1407 1408 1410 1411 1413 1415 1418
1523 1522 1521 1520 1518 1517 1516 1514 1513 1512 1510 1509 1507 1505 1504 1502 1500 1498 1495 1494 1492 1490 1487 1485 1483 1481 1479 1476 1474 1471 1470 1468 1467 1464 1461 1459 1456 1452 1449 1447 1444 1442 1440 1438 1435 1433 1430 1428 1426 1424 1422 1420 1418 1417 1415 1414 1412 1410 1408 1407 1406 1405 1404 1405 1406 1405 1404 1403 1402 1401 1401 1401 1401 1401 1401 1402 1403 1403 1405 1407 1408 1409 1410 1413 1416
1520 1519 1518 1517 1515 1514 1512 1511 1510 1509 1507 1506 1504 1502 1501 1499 1497 1495 1492 1491 1489 1487 1485 1483 1480 1478 1476 1474 1471 1468 1466 1465 1463 1461 1458 1455 1451 1448 1445 1442 1439 1436 1434 1432 1430 1427 1425 1423 1421 1419 1416 1415 1413 1412 1410 1409 1407 1405 1403 1402 1401 1399 1398 1399 1400 1400 1399 1398 1397 1397 1396 1396 1396 1397 1397 1398 1399 1399 1400 1402 1403 1404 1407 1410 1413
1518 1517 1516 1514 1513 1512 1511 1509 1508 1506 1505 1503 1501 1500 1498 1496 1495 1492 1490 1487 1485 1483 1481 1479 1477 1476 1473 1471 1468 1465 1463 1462 1460 1457 1455 1452 1448 1445 1441 1437 1434 1431 1429 1427 1424 1421 1419 1417 1416 1413 1411 1410 1408 1406 1405 1404 1402 1400 1399 1397 1395 1393 1393 1394 1394 1394 1393 1393 1392 1391 1391 1391 1391 1392 1393 1394 1394 1395 1395 1397 1399 1402 1405 1408 1412
1516 1515 1514 1513 1512 1511 1510 1508 1506 1505 1503 1501 1499 1498 1496 1494 1492 1490 1487 1485 1482 1480 1478 1475 1474 1472 1470 1468 1466 1462 1459 1458 1456 1454 1451 1448 1445 1441 1437 1433 1430 1427 1424 1421 1418 1416 1413 1412 1410 1408 1406 1405 1403 1401 1400 1399 1397 1396 1394 1392 1389 1388 1389 1390 1389 1387 1387 1387 1386 1386 1386 1386 1386 1387 1388 1389 1390 1391 1393 1395 1397 1399 1402 1406 1409
1515 1514 1513 1512 1511 1510 1508 1507 1505 1503 1501 1499 1497 1496 1493 1491 1489 1487 1485 1483 1480 1477 1475 1473 1470 1468 1466 1464 1462 1459 1457 1454 1452 1450 1447 1444 1441 1437 1433 1429 1425 1423 1420 1416 1413 1410 1408 1407 1405 1403 1401 1399 1398 1397 1395 1394 1393 1391 1390 1387 1384 1384 1385 1385 1383 1382 1382 1381 1381 1381 1381 1381 1382 1383 1384 1385 1386 1389 1391 1393 1395 1397 1400 1402 1405
1513 1513 1512 1511 1510 1508 1507 1505 1503 1501 1499 1497 1495 1493 1491 1489 1486 1484 1482 1480 1477 1475 1472 1470 1467 1464 1462 1460 1458 1456 1453 1450 1448 1446 1443 1440 1437 1433 1429 1426 1422 1418 1415 1411 1408 1405 1403 1401 1399 1398 1396 1394 1393 1392 1390 1389 1388 1386 1384 1382 1381 1381 1381 1379 1378 1378 1377 1376 1376 1377 1377 1377 1378 1379 1380 1381 1383 1385 1388 1390 1393 1396 1398 1399 1403
1511 1510 1509 1508 1507 1506 1504 1503 1501 1499 1497 1494 1492 1490 1489 1487 1484 1482 1479 1476 1474 1471 1469 1466 1463 1460 1457 1456 1453 1451 1449 1446 1443 1440 1438 1435 1432 1429 1425 1421 1418 1414 1410 1406 1404 1401 1398 1396 1394 1393 1391 1389 1388 1387 1385 1384 1383 1380 1379 1378 1377 1378 1376 1374 1373 1373 1373 1372 1372 1373 1373 1373 1374 1374 1375 1377 1379 1382 1386 1389 1392 1395 1397 1399 1403
1508 1507 1506 1505 1504 1503 1501 1500 1498 1496 1494 1492 1489 1487 1485 1483 1481 1479 1476 1473 1470 1467 1464 1462 1458 1454 1451 1449 1447 1445 1444 1441 1438 1435 1432 1429 1427 1424 1420 1416 1413 1410 1405 1401 1399 1396 1394 1391 1389 1387 1386 1384 1383 1382 1380 1379 1377 1375 1374 1373 1373 1372 1371 1370 1369 1369 1369 1369 1369 1370 1370 1370 1370 1371 1372 1374 1377 1380 1384 1387 1391 1394 1396 1400 1403
1505 1504 1503 1501 1500 1499 1498 1497 1495 1493 1491 1489 1486 1484 1482 1480 1477 1475 1472 1469 1465 1462 1459 1456 1453 1449 1445 1442 1440 1438 1436 1434 1432 1429 1426 1423 1421 1418 1414 1411 1407 1404 1400 1397 1394 1391 1389 1386 1384 1382 1381 1379 1378 1377 1375 1374 1372 1371 1370 1369 1368 1367 1366 1365 1365 1365 1365 1365 1365 1366 1368 1368 1368 1369 1370 1372 1375 1378 1382 1386 1389 1392 1395 1397 1400
1501 1500 1499 1498 1497 1496 1494 1493 1491 1490 1488 1485 1483 1480 1478 1475 1473 1470 1467 1464 1461 1457 1454 1451 1447 1444 1440 1436 1433 1431 1429 1427 1425 1423 1420 1417 1414 1412 1408 1405 1402 1399 1395 1392 1389 1387 1384 1382 1379 1377 1376 1374 1373 1371 1370 1368 1367 1366 1365 1364 1363 1362 1361 1360 1361 1361 1362 1361 1362 1364 1365 1366 1367 1368 1370 1372 1374 1377 1380 1384 1387 1391 1393 1395 1398
1498 1497 1496 1495 1494 1492 1490 1489 1487 1485 1484 1481 1479 1476 1474 1471 1468 1465 1462 1460 1456 1453 1449 1446 1442 1438 1435 1432 1428 1425 1423 1420 1417 1415 1413 1410 1407 1405 1402 1399 1396 1393 1390 1387 1384 1382 1379 1376 1374 1372 1370 1369 1368 1366 1364 1363 1363 1362 1361 1360 1359 1357 1356 1356 1356 1358 1359 1360 1361 1361 1362 1364 1366 1368 1369 1371 1373 1376 1379 1382 1385 1389 1392 1394 1397
1495 1494 1493 1491 1490 1488 1486 1484 1483 1481 1479 1477 1475 1473 1470 1467 1464 1461 1458 1455 1451 1448 1444 1441 1438 1434 1429 1426 1423 1419 1417 1414 1411 1409 1406 1403 1400 1397 1394 1391 1389 1386 1383 1381 1378 1376 1373 1371 1369 1367 1365 1364 1362 1361 1359 1358 1357 1357 1356 1356 1355 1353 1352 1352 1353 1355 1357 1359 1359 1359 1360 1363 1365 1366 1367 1370 1373 1376 1379 1381 1384 1386 1390 1393 1397
1492 1491 1489 1487 1486 1484 1482 1480 1478 1476 1474 1472 1470 1468 1465 1463 1460 1457 1455 1451 1446 1443 1440 1436 1433 1429 1425 1421 1417 1413 1410 1409 1406 1403 1400 1396 1393 1390 1387 1385 1382 1379 1377 1374 1372 1370 1367 1365 1362 1360 1359 1358 1357 1355 1354 1353 1352 1352 1352 1352 1352 1351 1350 1349 1350 1352 1354 1354 1355 1357 1359 1362 1364 1365 1367 1369 1372 1375 1378 1380 1383 1385 1389 1392 1395
1488 1487 1485 1483 1481 1479 1477 1475 1473 1471 1468 1466 1464 1462 1460 1458 1454 1452 1451 1449 1444 1439 1435 1431 1428 1424 1420 1416 1413 1408 1403 1402 1401 1397 1393 1390 1387 1384 1381 1379 1376 1373 1371 1369 1367 1364 1361 1359 1356 1354 1353 1352 1351 1350 1349 1348 1347 1346 1347 1348 1349 1348 1347 1347 1347 1348 1348 1349 1351 1354 1356 1359 1361 1364 1366 1369 1372 1374 1377 1379 1382 1385 1388 1392 1395
1484 1483 1481 1479 1477 1474 1472 1470 1468 1466 1463 1460 1458 1456 1455 1453 1450 1446 1444 1443 1440 1435 1430 1425 1423 1419 1414 1409 1407 1402 1397 1394 1393 1391 1387 1384 1380 1377 1375 1373 1371 1368 1366 1365 1363 1359 1356 1353 1351 1349 1348 1347 1346 1345 1344 1343 1342 1342 1342 1343 1344 1344 1344 1345 1345 1344 1344 1346 1349 1351 1353 1355 1358 1361 1364 1367 1370 1373 1375 1379 1382 1385 1387 1390 1393
1480 1478 1476 1475 1473 1470 1468 1466 1463 1461 1459 1455 1452 1448 1446 1444 1443 1440 1436 1433 1431 1429 1425 1419 1416 1413 1408 1403 1399 1396 1391 1387 1385 1382 1379 1376 1373 1371 1369 1367 1365 1363 1361 1360 1358 1354 1351 1349 1346 1344 1343 1343 1342 1341 1340 1339 1338 1338 1338 1339 1339 1340 1341 1342 1341 1340 1342 1344 1347 1349 1351 1353 1356 1359 1362 1365 1367 1370 1374 1378 1381 1383 1386 1389 1392
1476 1474 1473 1471 1469 1467 1464 1462 1459 1456 1453 1450 1446 1442 1437 1433 1431 1430 1428 1424 1420 1418 1416 1413 1409 1405 1401 1397 1392 1388 1385 1381 1378 1375 1372 1369 1367 1364 1362 1360 1359 1357 1357 1355 1352 1347 1345 1344 1342 1339 1338 1338 1337 1337 1336 1335 1335 1335 1335 1336 1335 1336 1337 1337 1337 1338 1341 1343 1344 1346 1349 1352 1354 1358 1360 1363 1365 1369 1372 1376 1379 1382 1385 1388 1391
1473 1471 1469 1467 1465 1463 1460 1457 1454 1451 1447 1444 1440 1437 1433 1427 1421 1418 1416 1414 1411 1407 1405 1403 1400 1396 1393 1389 1385 1381 1378 1375 1371 1368 1366 1363 1361 1358 1356 1354 1352 1352 1351 1349 1345 1342 1340 1339 1337 1335 1334 1333 1333 1332 1332 1332 1332 1332 1332 1332 1332 1333 1333 1333 1334 1337 1340 1341 1343 1345 1348 1351 1354 1357 1359 1362 1365 1368 1371 1374 1377 1380 1383 1387 1389
1470 1468 1466 1463 1461 1458 1455 1452 1449 1445 1442 1439 1435 1431 1427 1423 1418 1412 1406 1402 1400 1397 1394 1391 1389 1386 1384 1381 1377 1374 1371 1368 1365 1362 1359 1357 1355 1353 1351 1348 1345 1345 1345 1343 1339 1337 1335 1334 1332 1331 1329 1328 1328 1328 1328 1328 1328 1328 1328 1329 1329 1330 1330 1330 1332 1335 1337 1339 1341 1343 1346 1349 1352 1354 1357 1361 1365 1368 1371 1373 1376 1378 1381 1384 1387
1467 1464 1462 1459 1457 1454 1451 1447 1444 1441 1437 1434 1430 1426 1422 1418 1414 1409 1404 1398 1392 1387 1384 1382 1380 1377 1375 1372 1369 1367 1364 1362 1359 1356 1354 1352 1350 1349 1347 1343 1339 1338 1337 1336 1334 1332 1330 1329 1328 1326 1325 1324 1324 1324 1324 1324 1324 1325 1325 1326 1326 1326 1327 1328 1330 1333 1335 1337 1339 1341 1344 1347 1350 1353 1356 1360 1363 1366 1369 1372 1374 1377 1379 1382 1384
1462 1459 1457 1454 1451 1448 1445 1442 1439 1435 1432 1429 1425 1421 1417 1413 1409 1404 1400 1395 1389 1383 1377 1373 1371 1369 1367 1366 1363 1360 1357 1355 1354 1352 1349 1347 1345 1344 1342 1338 1335 1333 1331 1330 1328 1326 1325 1324 1323 1322 1321 1320 1319 1320 1320 1320 1321 1321 1322 1322 1323 1323 1324 1325 1327 1330 1332 1335 1337 1340 1343 1346 1349 1353 1356 1359 1362 1365 1368 1370 1373 1376 1378 1381 1383
1456 1454 1451 1448 1445 1441 1438 1435 1432 1429 1426 1423 1419 1416 1412 1408 1404 1399 1395 1390 1385 1380 1374 1369 1364 1361 1359 1359 1358 1355 1351 1348 1347 1346 1343 1341 1340 1339 1337 1333 1330 1328 1326 1324 1323 1322 1320 1319 1318 1317 1317 1316 1315 1316 1316 1317 1317 1318 1318 1318 1319 1320 1321 1323 1325 1328 1330 1333 1335 1338 1341 1345 1348 1351 1354 1357 1361 1363 1366 1369 1372 1374 1377 1379 1381
1451 1448 1445 1442 1439 1436 1433 1430 1427 1424 1420 1417 1414 1410 1406 1403 1399 1395 1391 1386 1382 1377 1372 1367 1362 1358 1354 1352 1353 1352 1348 1343 1340 1338 1337 1336 1335 1334 1331 1329 1326 1324 1321 1320 1319 1317 1315 1314 1313 1313 1312 1312 1312 1312 1313 1313 1314 1314 1314 1315 1316 1317 1319 1320 1323 1325 1328 1330 1333 1337 1340 1343 1347 1350 1353 1356 1359 1361 1364 1367 1370 1373 1375 1377 1379
1446 1444 1441 1438 1435 1432 1429 1426 1423 1419 1416 1413 1409 1405 1402 1398 1394 1390 1386 1382 1377 1373 1368 1363 1359 1356 1353 1351 1350 1349 1345 1340 1335 1332 1331 1330 1330 1329 1327 1325 1322 1320 1317 1315 1314 1313 1311 1310 1309 1308 1308 1308 1308 1309 1309 1310 1310 1310 1311 1312 1313 1314 1315 1317 1320 1323 1325 1328 1332 1336 1339 1342 1345 1349 1352 1355 1358 1360 1363 1366 1368 1371 1373 1375 1377
1442 1440 1438 1435 1432 1429 1426 1423 1420 1416 1413 1409 1406 1402 1398 1394 1390 1386 1381 1377 1372 1368 1364 1359 1355 1352 1351 1350 1349 1347 1342 1336 1332 1329 1326 1324 1324 1324 1323 1321 1318 1316 1313 1311 1310 1308 1307 1305 1304 1304 1304 1304 1304 1305 1306 1306 1306 1307 1308 1309 1310 1311 1313 1315 1318 1321 1324 1327 1331 1334 1337 1340 1344 1347 1351 1354 1357 1360 1362 1365 1367 1370 1372 1374 1375
1439 1436 1434 1431 1429 1426 1423 1420 1416 1413 1410 1406 1402 1398 1394 1390 1386 1381 1377 1372 1368 1363 1359 1355 1351 1349 1348 1347 1346 1344 1340 1333 1329 1326 1323 1321 1320 1319 1317 1316 1314 1312 1310 1308 1306 1304 1303 1302 1301 1300 1300 1301 1301 1302 1302 1303 1303 1304 1305 1306 1307 1309 1311 1313 1316 1319 1322 1326 1330 1333 1336 1339 1342 1345 1349 1352 1355 1358 1361 1364 1366 1368 1370 1371 1373
1436 1433 1431 1428 1425 1422 1419 1416 1413 1410 1407 1403 1399 1395 1391 1387 1382 1378 1373 1369 1365 1360 1355 1351 1347 1345 1343 1342 1340 1338 1335 1330 1326 1323 1320 1318 1316 1314 1312 1311 1309 1308 1306 1304 1302 1301 1299 1298 1297 1297 1297 1298 1299 1299 1299 1300 1300 1301 1302 1303 1305 1307 1309 1312 1315 1318 1322 1326 1329 1332 1335 1338 1342 1345 1348 1351 1354 1356 1359 1362 1364 1366 1367 1369 1370
1433 1430 1428 1425 1422 1419 1416 1413 1410 1407 1403 1400 1396 1392 1388 1384 1379 1375 1370 1366 1362 1358 1353 1349 1344 1341 1339 1337 1335 1332 1330 1327 1324 1321 1318 1316 1313 1310 1308 1307 1305 1303 1301 1300 1298 1297 1296 1295 1294 1294 1295 1295 1296 1296 1297 1297 1298 1299 1300 1301 1303 1305 1308 1311 1315 1318 1322 1326 1329 1331 1334 1337 1340 1344 1347 1349 1352 1355 1357 1360 1362 1364 1365 1367 1368
1429 1427 1424 1422 1419 1417 1414 1411 1408 1404 1401 1397 1394 1390 1386 1382 1378 1373 1369 1364 1360 1356 1352 1348 1343 1339 1335 1332 1330 1328 1325 1323 1320 1318 1315 1312 1309 1307 1304 1302 1300 1299 1297 1296 1295 1294 1293 1292 1292 1293 1293 1294 1294 1294 1295 1296 1297 1298 1299 1300 1302 1304 1307 1311 1315 1319 1322 1326 1328 1331 1333 1336 1339 1342 1345 1348 1350 1353 1355 1358 1360 1362 1363 1365 1366
1425 1423 1421 1418 1416 1413 1411 1408 1405 1402 1398 1395 1392 1388 1384 1380 1376 1371 1367 1362 1358 1354 1350 1346 1342 1337 1333 1330 1327 1325 1322 1320 1317 1314 1311 1308 1305 1303 1300 1298 1297 1295 1294 1293 1292 1291 1291 1291 1292 1292 1292 1293 1293 1293 1294 1295 1296 1297 1298 1299 1302 1305 1308 1312 1316 1320 1323 1325 1327 1329 1331 1334 1337 1340 1343 1346 1349 1351 1354 1356 1358 1360 1361 1363 1364
1422 1420 1418 1415 1413 1410 1408 1405 1402 1399 1396 1393 1389 1385 1382 1378 1374 1370 1365 1360 1356 1352 1347 1343 1340 1336 1333 1329 1326 1323 1320 1317 1313 1310 1307 1305 1302 1299 1297 1295 1294 1292 1291 1291 1290 1290 1290 1291 1292 1292 1292 1292 1292 1293 1293 1294 1295 1296 1298 1299 1302 1305 1308 1313 1317 1320 1322 1325 1327 1329 1331 1333 1336 1340 1342 1345 1347 1350 1353 1355 1357 1358 1360 1361 1363
1419 1417 1415 1412 1410 1407 1405 1402 1400 1397 1394 1391 1388 1384 1380 1376 1372 1368 1363 1359 1354 1350 1346 1342 1338 1335 1331 1328 1324 1320 1317 1313 1310 1307 1304 1302 1299 1297 1295 1293 1292 1291 1290 1289 1289 1289 1290 1291 1292 1292 1291 1291 1292 1292 1293 1294 1295 1297 1298 1300 1302 1305 1309 1314 1317 1320 1322 1324 1327 1329 1331 1333 1336 1339 1341 1344 1346 1349 1351 1353 1355 1357 1358 1360 1361
1417 1414 1412 1409 1407 1405 1402 1400 1397 1395 1392 1389 1386 1383 1379 1375 1371 1367 1362 1358 1353 1349 1344 1341 1337 1333 1329 1325 1322 1318 1314 1311 1307 1305 1302 1300 1297 1295 1293 1292 1291 1290 1289 1289 1289 1290 1291 1292 1292 1292 1292 1292 1292 1293 1294 1295 1296 1298 1299 1302 1304 1308 1311 1315 1317 1320 1322 1324 1327 1329 1332 1334 1336 1338 1340 1343 1345 1347 1349 1351 1353 1354 1356 1357 1359
1414 1411 1409 1407 1405 1402 1400 1397 1395 1393 1390 1387 1385 1381 1378 1374 1371 1366 1362 1357 1352 1348 1344 1340 1336 1332 1328 1324 1320 1316 1313 1309 1306 1304 1301 1299 1297 1295 1293 1292 1291 1290 1290 1290 1290 1291 1292 1293 1293 1293 1293 1293 1294 1294 1296 1297 1298 1299 1301 1304 1306 1309 1311 1314 1317 1319 1322 1324 1326 1329 1331 1333 1336 1338 1340 1342 1344 1346 1348 1349 1351 1353 1354 1355 1356
1411 1408 1406 1404 1402 1400 1398 1396 1394 1392 1389 1386 1383 1380 1377 1373 1370 1366 1362 1357 1352 1348 1344 1340 1335 1332 1327 1323 1319 1316 1312 1309 1306 1304 1301 1299 1297 1295 1294 1293 1292 1292 1292 1292 1292 1293 1293 1294 1294 1294 1295 1295 1296 1296 1297 1299 1300 1301 1303 1305 1307 1309 1311 1314 1316 1319 1322 1324 1326 1328 1330 1333 1335 1337 1339 1341 1343 1344 1346 1348 1349 1351 1352 1353 1354
1408 1406 1404 1402 1400 1398 1396 1394 1392 1390 1388 1385 1382 1379 1376 1372 1369 1365 1362 1358 1353 1349 1344 1340 1336 1332 1328 1324 1321 1317 1313 1310 1308 1305 1303 1301 1299 1298 1297 1296 1295 1295 1295 1295 1295 1295 1295 1295 1295 1295 1296 1296 1297 1298 1299 1300 1301 1303 1304 1306 1308 1310 1313 1315 1318 1320 1322 1324 1326 1328 1330 1332 1334 1336 1338 1340 1341 1343 1345 1346 1347 1349 1350 1351 1352